Weather History for Poughkeepsie, NY

Change the Weather History Date:

Saturday, May 19, 2012

  Actual Average Record
Temperature  
Mean Temperature 64 °F 60 °F  
Max Temperature 83 °F 72 °F 96 °F (1962)
Min Temperature 44 °F 47 °F 31 °F (2009)
Degree Days  
Heating Degree Days 1 6  
Month to date heating degree days 92 164  
Since 1 July heating degree days 4744 6103  
Cooling Degree Days 0 0  
Month to date cooling degree days 13 13  
Year to date cooling degree days 20 18  
Growing Degree Days 14 (Base 50)    
Moisture  
Dew Point 47 °F    
Average Humidity 60    
Maximum Humidity 92    
Minimum Humidity 28    
Precipitation  
Precipitation 0.00 in 0.15 in 1.54 in (2011)
Month to date precipitation 1.99 2.52  
Year to date precipitation 8.85 15.61  
Sea Level Pressure  
Sea Level Pressure 30.13 in    
Wind  
Wind Speed 1 mph (NW)    
Max Wind Speed 10 mph    
Max Gust Speed 15 mph    
Visibility 10 miles    
Events      
T = Trace of Precipitation, MM = Missing Value Source: NWS Daily Summary

Daily Weather History Graph

Daily Weather History Graph

Search for Another Location

Airport:

Trip Planner

Search our weather history database for the weather conditions in past years. The results will help you decide how hot, cold, wet, or windy it might be!

Date:

Astronomy

May. 19, 2012 Rise Set
Actual Time 5:31 AM EDT 8:12 PM EDT
Civil Twilight 4:59 AM EDT 8:44 PM EDT
Nautical Twilight 4:19 AM EDT 9:25 PM EDT
Astronomical Twilight 3:33 AM EDT 10:11 PM EDT
Moon 4:33 AM EDT (5/19) 7:14 PM EDT (5/19)
Length of Visible Light 15h 45m
Length of Day
14h 40m
Waning Crescent, 2% of the Moon is Illuminated
May 19
Waning Crescent
May 20
New
May 28
First Quarter
Jun 4
Full
Jun 11
Last Quarter

Hourly Weather History & Observations

Time (EDT) Temp. Dew Point Humidity Pressure Visibility Wind Dir Wind Speed Gust Speed Precip Events Conditions
12:53 AM 50.0 °F 44.1 °F 80% 30.17 in 10.0 mi Calm Calm - N/A   Clear
1:53 AM 48.9 °F 44.1 °F 83% 30.17 in 10.0 mi Calm Calm - N/A   Clear
2:53 AM 48.0 °F 44.1 °F 86% 30.15 in 10.0 mi Calm Calm - N/A   Clear
3:53 AM 46.9 °F 43.0 °F 86% 30.15 in 10.0 mi Calm Calm - N/A   Clear
4:53 AM 46.0 °F 43.0 °F 89% 30.15 in 10.0 mi Calm Calm - N/A   Clear
5:53 AM 45.0 °F 42.1 °F 90% 30.16 in 10.0 mi Calm Calm - N/A   Clear
6:53 AM 48.0 °F 44.1 °F 86% 30.17 in 10.0 mi Calm Calm - N/A   Clear
7:53 AM 54.0 °F 46.0 °F 75% 30.18 in 10.0 mi Calm Calm - N/A   Clear
8:53 AM 60.1 °F 46.0 °F 60% 30.18 in 10.0 mi Calm Calm - N/A   Clear
9:53 AM 64.9 °F 46.9 °F 52% 30.17 in 10.0 mi Calm Calm - N/A   Clear
10:53 AM 71.1 °F 46.9 °F 42% 30.15 in 10.0 mi Variable 3.5 mph - N/A   Clear
11:53 AM 73.9 °F 48.9 °F 41% 30.14 in 10.0 mi WNW 3.5 mph - N/A   Clear
12:53 PM 77.0 °F 48.9 °F 37% 30.12 in 10.0 mi Calm Calm - N/A   Clear
1:53 PM 79.0 °F 48.0 °F 34% 30.11 in 10.0 mi WSW 5.8 mph - N/A   Clear
2:53 PM 82.0 °F 46.0 °F 28% 30.09 in 10.0 mi Variable 4.6 mph - N/A   Clear
3:53 PM 82.0 °F 48.9 °F 31% 30.08 in 10.0 mi NNW 6.9 mph - N/A   Clear
4:53 PM 82.0 °F 46.0 °F 28% 30.08 in 10.0 mi Variable 3.5 mph - N/A   Clear
5:53 PM 82.0 °F 46.0 °F 28% 30.07 in 10.0 mi NW 3.5 mph - N/A   Clear
6:53 PM 80.1 °F 48.9 °F 34% 30.06 in 10.0 mi North 3.5 mph - N/A   Clear
7:53 PM 73.9 °F 52.0 °F 46% 30.08 in 10.0 mi Calm Calm - N/A   Clear
8:53 PM 68.0 °F 52.0 °F 56% 30.10 in 10.0 mi Calm Calm - N/A   Clear
9:53 PM 64.0 °F 55.0 °F 73% 30.13 in 10.0 mi Calm Calm - N/A   Clear
10:53 PM 63.0 °F 51.1 °F 65% 30.14 in 10.0 mi Calm Calm - N/A   Clear
11:53 PM 59.0 °F 51.1 °F 75% 30.15 in 10.0 mi Calm Calm - N/A   Clear